Notices

What's New in latest Release from April 7th, 2021:

- Updated Glossary, including Speed of Maximum Gust, and Total Hourly Precipitation

- Updated national and regional climate services offices contacts and prices information

- Addition of station inventory lists for 1981-2010, 1971-2000, and 1961-1990 Normals.

If you haven't already, please take our survey and provide feedback about our website: https://eccc.sondage-survey.ca/f/LanguageSelection.aspx?s=442ca660-fcf1-47c0-95a9-59707d6fd709

Hourly Data Report for April 29, 2017

CLYDE RIVER A
NUNAVUT

70°29'09.000" N
68°31'01.000" W
26.50 m
2400804
71090
YCY

Download Data

Hourly Data (April 2017)
Hourly Data Report for April 29, 2017
TIME
LST
Temp Definition
°C
Dew Point Definition
°C
Rel Hum Definition
%
Precip. Amount Definition
mm

Wind Dir Definition
10's deg

Wind Spd Definition
km/h
Visibility Definition
km
Stn Press Definition
kPa
Hmdx Definition


Wind Chill Definition


Weather Definition


00:00 -15.0 -16.6 88 0.0 35 5 12.9 101.19   -19 Snow
01:00 -15.0 -16.6 88 0.0 1 4 3.2 101.17   -18 Snow
02:00 -14.6 -16.0 89 0.0 35 5 2.8 101.15   -18 Snow
03:00 -14.5 -16.1 88 0.0 35 9 3.2 101.12   -20 Snow
04:00 -13.9 -15.3 89 0.0 11 11 4.8 101.09   -20 Snow
05:00 -14.1 -15.7 88 0.0 6 15 4.8 101.06   -22 Snow
06:00 -14.1 -15.8 87 0.0 5 9 2.8 101.04   -20 Snow
07:00 -13.9 -15.9 85 0.0 5 9 3.2 101.02   -20 Snow
08:00 -13.6 -16.1 82 0.0 4 11 8.1 100.99   -20 Snow
09:00 -13.9 -16.1 84 0.0 4 13 16.1 100.97   -21 LegendNANA
10:00 -13.5 -16.1 81 0.0 1 13 16.1 100.93   -20 LegendNANA
11:00 -13.3 -15.6 83 0.0 36 17 16.1 100.86   -21 Snow
12:00 -13.4 -16.0 81 0.0 35 18 16.1 100.84   -22 LegendNANA
13:00 -13.4 -16.0 81 0.0 34 22 16.1 100.80   -23 Snow
14:00 -13.3 -15.9 81 0.0 34 22 16.1 100.77   -22 LegendNANA
15:00 -13.5 -16.0 81 0.0 34 24 4.0 100.76   -23 Snow
16:00 -13.6 -15.6 85 0.0 33 30 2.0 100.73   -24 Snow
17:00 -13.8 -15.9 84 0.0 34 32 2.0 100.73   -25 Snow
18:00 -13.9 -15.8 86 0.0 33 34 2.0 100.72   -25 Snow
19:00 -14.1 -16.1 85 0.0 33 34 3.6 100.72   -25 Snow
20:00 -14.5 -16.5 85 0.0 33 32 4.8 100.73   -26 Snow
21:00 -15.0 -16.8 86 0.0 34 37 8.1 100.72   -27 Snow
22:00 -15.1 -16.9 86 0.0 33 35 2.4 100.73   -27 Snow
23:00 -15.1 -16.9 86 0.0 33 32 3.2 100.72   -26 Snow

Notes on Data Quality.

Legend

  • E = Estimated
  • M = Missing
  • NA = Not Available*
  • [empty] = Indicates an unobserved value
Date modified: